Regional Weather Roundup
Issued by NWS

Home | Current Version | Previous Version | Text Only | Print | Product List | Glossary Off
Versions: 1 2 3 4 5 6 7 8 9 10 11 12 13 14 15 16 17 18 19 20 21 22 23 24 25 26 27 28 29 30 31 32 33 34 35 36 37 38 39 40 41 42 43 44 45 46 47 48 49 50

000
ASUS43 KOAX 220602
RWRNE

WEATHER ROUNDUP FOR NEBRASKA
NATIONAL WEATHER SERVICE OMAHA NE
1200 AM CST MON JAN 22 2018

NOTES: SATELLITE DATA IS BEING USED TO AUGMENT CLOUD COVER ABOVE
       12000 FEET.
       "FAIR" INDICATES FEW OR NO CLOUDS BELOW 12,000 FEET WITH NO
       SIGNIFICANT WEATHER AND/OR OBSTRUCTIONS TO VISIBILITY.


NEZ001>004-019>022-054>056-220700-
NEBRASKA PANHANDLE

CITY           SKY/WX    TMP DP  RH WIND       PRES   REMARKS
SCOTTSBLUFF    CLOUDY    27  20  75 NW21      29.95F WCI  13
6HR MIN TEMP:  27; 6HR MAX TEMP:  28; 6HR PCP: TRACE;

ALLIANCE       CLOUDY    25  23  92 NW18      29.89F WCI  11
6HR MIN TEMP:  24; 6HR MAX TEMP:  26; 6HR PCP: TRACE;

CHADRON        MOCLDY    23  20  88 NW9       29.98S WCI  13
6HR MIN TEMP:  23; 6HR MAX TEMP:  31; 6HR PCP: TRACE;

GORDON         CLOUDY    27  23  85 N14       29.91R WCI  16
6HR MIN TEMP:  27; 6HR MAX TEMP:  29;

KIMBALL        LGT SNOW  23  21  91 NW23G29   29.91R WCI   8
SIDNEY         FLURRIES  25  22  88 NW29G35   29.87S WCI   8
6HR MIN TEMP:  25; 6HR MAX TEMP:  26; 6HR PCP: TRACE;

$$

NEZ057>060-069>072-079>082-220700-
SOUTHWEST NEBRASKA

CITY           SKY/WX    TMP DP  RH WIND       PRES   REMARKS
NORTH PLATTE   FOG       29  26  89 N22G31    29.72S VSB 1/2 WCI  15
6HR MIN TEMP:  29; 6HR MAX TEMP:  32; 6HR PCP:  0.14;

IMPERIAL       FOG       27  26  96 N32G44    29.76F VSB 1   WCI  10
6HR MIN TEMP:  27; 6HR MAX TEMP:  29; 6HR PCP:  0.04;

LEXINGTON      LGT RAIN  33  31  92 N12       29.64S WCI  24
MCCOOK         SNOW      30  29  96 N29G39    29.65S VSB 1/2 WCI  15
6HR MIN TEMP:  30; 6HR MAX TEMP:  32; 6HR PCP:  0.01;

OGALLALA       CLOUDY    30  28  92 N28       29.81R WCI  15
$$

NEZ005>010-023>029-035>040-094-220700-
NORTH CENTRAL NEBRASKA

CITY           SKY/WX    TMP DP  RH WIND       PRES   REMARKS
VALENTINE      LGT SNOW  30  27  88 N18G29    29.88R VSB 1   WCI  18
6HR MIN TEMP:  30; 6HR MAX TEMP:  32; 6HR PCP:  0.11;

AINSWORTH      CLOUDY    29  28  99 N28G36    29.83S WCI  14
BROKEN BOW     LGT SNOW  32  28  85 N26G40    29.65S FOG     WCI  18
6HR MIN TEMP:  32; 6HR MAX TEMP:  32; 6HR PCP:  0.10;

O`NEILL        LGT SNOW  31  31 100 N30G36    29.76F VSB 3/4 WCI  17
ORD            MIX PCPN  32  30  92 NE33G48   29.63F FOG     WCI  17
6HR MIN TEMP:  32; 6HR MAX TEMP:  33; 6HR PCP:  0.05;

THEDFORD       CLOUDY    29  28  95 N26G35    29.77S WCI  15
$$

NEZ041-046>049-061>064-073>077-083>087-220700-
SOUTH CENTRAL NEBRASKA

CITY           SKY/WX    TMP DP  RH WIND       PRES   REMARKS
GRAND ISLAND   CLOUDY    32  32 100 NE22G30   29.61R WCI  19
6HR MIN TEMP:  32; 6HR MAX TEMP:  34; 6HR PCP:  0.01;

AURORA         CLOUDY    33  33  99 NE31G40   29.55F WCI  19
HASTINGS       CLOUDY    33  32  96 NE20      29.58S FOG     WCI  21
6HR MIN TEMP:  33; 6HR MAX TEMP:  34; 6HR PCP: TRACE;

HEBRON         FOG       37  37  99 NE18G26   29.51F VSB 1   WCI  27
HOLDREGE       MIX PCPN  32  32 100 N12       29.60S WCI  23
KEARNEY        MIX PCPN  32  31  96 NE25G32   29.60  FOG     WCI  19
YORK           CLOUDY    34  34 100 NE21      29.61F FOG     WCI  22
$$

NEZ011>018-030>034-042>045-220700-
NORTHEAST NEBRASKA

CITY           SKY/WX    TMP DP  RH WIND       PRES   REMARKS
NORFOLK        CLOUDY    45  31  58 N17G28    29.67F
6HR MIN TEMP:  44; 6HR MAX TEMP:  49; 6HR PCP:  0.07;

ALBION         CLOUDY    33  31  92 NE26G37   29.66F WCI  20
BLAIR          DRIZZLE   37  36  96 N24       29.58F WCI  25
COLUMBUS       CLOUDY    34  32  92 NE16      29.66R WCI  24
FREMONT        CLOUDY    36  35  97 N9G23     29.62S WCI  29
TEKAMAH        LGT RAIN  37  34  89 N20       29.67F FOG     WCI  27
6HR MIN TEMP:  37; 6HR MAX TEMP:  38; 6HR PCP:  0.10;

WAYNE          MIX PCPN  33  32  96 N22G28    29.70F WCI  21
$$

NEZ050>053-065>068-078-088>093-220700-
SOUTHEAST NEBRASKA

CITY           SKY/WX    TMP DP  RH WIND       PRES   REMARKS
LINCOLN        LGT RAIN  37  35  92 N16       29.62F FOG     WCI  28
6HR MIN TEMP:  37; 6HR MAX TEMP:  38; 6HR PCP:  0.02;

OMAHA EPPLEY   DRIZZLE   37  36  96 N13G24    29.60F FOG     WCI  29
6HR MIN TEMP:  37; 6HR MAX TEMP:  39; 6HR PCP:  0.15;

BEATRICE       FOG       38  38 100 N15       29.54F VSB 1   WCI  30
FALLS CITY     FOG       42  42 100 N15       29.49F VSB 1/2
6HR MIN TEMP:  42; 6HR MAX TEMP:  52; 6HR PCP:  0.01;

NEBRASKA CITY  RAIN      39  39 100 N13       29.57S WCI  31
PLATTSMOUTH    CLOUDY    37  37 100 NW6       29.60R WCI  32
$$

NEZ044-045-051>053-067-220700-
OMAHA AREA

CITY           SKY/WX    TMP DP  RH WIND       PRES   REMARKS
OMAHA EPPLEY   DRIZZLE   37  36  96 N13G24    29.60F FOG     WCI  29
6HR MIN TEMP:  37; 6HR MAX TEMP:  39; 6HR PCP:  0.15;

BLAIR          DRIZZLE   37  36  96 N24       29.58F WCI  25
FREMONT        CLOUDY    36  35  97 N9G23     29.62S WCI  29
MILLARD        CLOUDY    39  37  94 NE7       29.61R WCI  34
OFFUTT AFB     CLOUDY    38  37  98 NE10      29.58F WCI  31
PLATTSMOUTH    CLOUDY    37  37 100 NW6       29.60R WCI  32
WAHOO          CLOUDY    37  35  94 N6        29.65R WCI  32
$$




USA.gov is the U.S. government's official web portal to all federal, state and local government web resources and services.